Location: Nelson
(41.2830°S, 173.2830°E)
Time: 18:28:00
(UTC+12:00)

Cosmos 2369 Rocket - Pass Details

Date: 14 May 2021
Orbit: 827 x 854 km, 71.0° (Epoch: 19 June)

Event Time Altitude Azimuth Distance (km) Brightness Sun altitude
Rises 19:21:53 0° 193° (SSW) 3,418 5.5 -23.1°
Reaches altitude 10° 19:25:04 10° 175° (S) 2,473 4.5 -23.7°
Enters shadow 19:26:02 13° 167° (SSE) 2,245 4.2 -23.8°
